| time (UTC) | temp C | wind direction | speed KPH | gust KPH | rain 1hr cm | rain 24hr cm | rain mn cm | humidity % | barometer mb |
| 20260504021900 | 15 | 215 | 0.0 | 3.2 | 0.00 | 0.00 | 0.00 | 47 | 1007.0 |
| 20260504020332 | 16 | 227 | 0.0 | 0.0 | 0.00 | 0.00 | 0.00 | 42 | 1007.1 |
| 20260504014841 | 17 | 227 | 0.0 | 0.0 | 0.00 | 0.00 | 0.00 | 41 | 1007.1 |
| 20260504013336 | 17 | 301 | 0.0 | 3.2 | 0.00 | 0.00 | 0.00 | 39 | 1007.1 |
| 20260504011825 | 18 | 326 | 0.0 | 3.2 | 0.00 | 0.00 | 0.00 | 36 | 1007.3 |
| 20260504010329 | 18 | 31 | 0.0 | 3.2 | 0.00 | 0.00 | 0.00 | 34 | 1007.6 |
| 20260504004858 | 18 | 360 | 1.6 | 8.0 | 0.00 | 0.00 | 0.00 | 35 | 1007.7 |
| 20260504003326 | 18 | 19 | 0.0 | 4.8 | 0.00 | 0.00 | 0.00 | 33 | 1007.7 |
| 20260504001826 | 20 | 355 | 4.8 | 9.7 | 0.00 | 0.00 | 0.00 | 31 | 1007.9 |
| 20260504000412 | 21 | 323 | 0.0 | 3.2 | 0.00 | 0.00 | 0.00 | 30 | 1008.2 |
| 20260503234849 | 21 | 5 | 0.0 | 3.2 | 0.00 | 0.00 | 0.00 | 30 | 1008.3 |
| 20260503233352 | 21 | 22 | 0.0 | 3.2 | 0.00 | 0.00 | 0.00 | 29 | 1008.3 |
| 20260503231838 | 21 | 12 | 0.0 | 4.8 | 0.00 | 0.00 | 0.00 | 31 | 1008.4 |
| 20260503230334 | 20 | 332 | 1.6 | 16.1 | 0.00 | 0.00 | 0.00 | 32 | 1008.5 |
| 20260503224831 | 20 | 20 | 0.0 | 8.0 | 0.00 | 0.00 | 0.00 | 33 | 1008.6 |
| 20260503223345 | 20 | 263 | 1.6 | 8.0 | 0.00 | 0.00 | 0.00 | 33 | 1008.9 |
| 20260503221842 | 20 | 334 | 1.6 | 9.7 | 0.00 | 0.00 | 0.00 | 36 | 1009.0 |
| 20260503220403 | 20 | 350 | 0.0 | 14.5 | 0.00 | 0.00 | 0.00 | 36 | 1009.4 |
| 20260503214848 | 20 | 29 | 3.2 | 9.7 | 0.00 | 0.00 | 0.00 | 36 | 1009.5 |
| 20260503213357 | 20 | 342 | 1.6 | 8.0 | 0.00 | 0.00 | 0.00 | 37 | 1009.9 |
| 20260503211822 | 20 | 278 | 1.6 | 12.9 | 0.00 | 0.00 | 0.00 | 36 | 1010.1 |
| 20260503210329 | 20 | 333 | 3.2 | 14.5 | 0.00 | 0.00 | 0.00 | 37 | 1010.5 |
| 20260503204835 | 20 | 348 | 3.2 | 11.3 | 0.00 | 0.00 | 0.00 | 37 | 1010.7 |
| 20260503203356 | 20 | 84 | 1.6 | 9.7 | 0.00 | 0.00 | 0.00 | 38 | 1010.9 |
| 20260503201821 | 19 | 275 | 1.6 | 9.7 | 0.00 | 0.00 | 0.00 | 36 | 1011.2 |
| 20260503200345 | 19 | 37 | 3.2 | 11.3 | 0.00 | 0.00 | 0.00 | 36 | 1011.2 |
| 20260503194843 | 19 | 296 | 1.6 | 11.3 | 0.00 | 0.00 | 0.00 | 38 | 1011.3 |
| 20260503193332 | 18 | 288 | 1.6 | 9.7 | 0.00 | 0.00 | 0.00 | 39 | 1011.7 |
| 20260503191838 | 19 | 242 | 1.6 | 8.0 | 0.00 | 0.00 | 0.00 | 39 | 1011.8 |
| 20260503190330 | 19 | 296 | 4.8 | 9.7 | 0.00 | 0.00 | 0.00 | 39 | 1012.0 |
| 20260503184838 | 18 | 321 | 0.0 | 9.7 | 0.00 | 0.00 | 0.00 | 40 | 1012.2 |
| 20260503183338 | 18 | 226 | 3.2 | 11.3 | 0.00 | 0.00 | 0.00 | 40 | 1012.4 |
| 20260503181851 | 18 | 17 | 1.6 | 6.4 | 0.00 | 0.00 | 0.00 | 43 | 1012.6 |
| 20260503180340 | 17 | 51 | 1.6 | 4.8 | 0.00 | 0.00 | 0.00 | 44 | 1013.0 |
| 20260503174917 | 16 | 93 | 1.6 | 6.4 | 0.00 | 0.00 | 0.00 | 46 | 1013.1 |
| 20260503173345 | 16 | 200 | 1.6 | 8.0 | 0.00 | 0.00 | 0.00 | 49 | 1013.3 |
| 20260503171903 | 15 | 65 | 1.6 | 6.4 | 0.00 | 0.00 | 0.00 | 51 | 1013.4 |
| 20260503170328 | 14 | 234 | 1.6 | 6.4 | 0.00 | 0.00 | 0.00 | 55 | 1013.5 |
| 20260503150331 | 10 | 258 | 0.0 | 1.6 | 0.00 | 0.00 | 0.00 | 66 | 1014.4 |
| 20260503130346 | 6 | 153 | 0.0 | 0.0 | 0.00 | 0.00 | 0.00 | 73 | 1014.6 |
| 20260503110350 | 4 | 196 | 0.0 | 0.0 | 0.00 | 0.00 | 0.00 | 80 | 1015.4 |
| 20260503090331 | 6 | 232 | 0.0 | 0.0 | 0.00 | 0.00 | 0.00 | 75 | 1015.9 |
| 20260503080336 | 6 | 321 | 0.0 | 0.0 | 0.00 | 0.00 | 0.00 | 74 | 1016.1 |
| 20260503071829 | 7 | 256 | 0.0 | 0.0 | 0.00 | 0.00 | 0.00 | 69 | 1015.5 |
| 20260503070349 | 7 | 256 | 0.0 | 0.0 | 0.00 | 0.00 | 0.00 | 69 | 1015.5 |
| 20260503054832 | 7 | 138 | 0.0 | 3.2 | 0.00 | 0.00 | 0.00 | 69 | 1016.1 |
| 20260503053359 | 7 | 263 | 0.0 | 0.0 | 0.00 | 0.00 | 0.00 | 67 | 1016.1 |
| 20260503051857 | 8 | 207 | 0.0 | 1.6 | 0.00 | 0.00 | 0.00 | 66 | 1015.8 |
| 20260503050323 | 8 | 236 | 0.0 | 3.2 | 0.00 | 0.00 | 0.00 | 63 | 1015.8 |
| 20260503044833 | 8 | 333 | 0.0 | 0.0 | 0.00 | 0.00 | 0.00 | 63 | 1015.9 |
| 20260503043340 | 9 | 339 | 0.0 | 0.0 | 0.00 | 0.00 | 0.00 | 62 | 1015.9 |
| 20260503041826 | 9 | 333 | 0.0 | 0.0 | 0.00 | 0.00 | 0.00 | 61 | 1016.0 |
| 20260503040345 | 9 | 333 | 0.0 | 0.0 | 0.00 | 0.00 | 0.00 | 60 | 1015.9 |
| 20260503034852 | 10 | 333 | 0.0 | 0.0 | 0.00 | 0.00 | 0.00 | 58 | 1015.5 |
| 20260503033337 | 10 | 346 | 0.0 | 1.6 | 0.00 | 0.00 | 0.00 | 55 | 1015.4 |
| 20260503031852 | 11 | 349 | 0.0 | 0.0 | 0.00 | 0.00 | 0.00 | 53 | 1015.3 |
| 20260503030331 | 11 | 349 | 0.0 | 0.0 | 0.00 | 0.00 | 0.00 | 50 | 1015.2 |
| 20260503024846 | 12 | 355 | 0.0 | 0.0 | 0.00 | 0.00 | 0.00 | 48 | 1015.0 |
| 20260503023346 | 13 | 355 | 0.0 | 0.0 | 0.00 | 0.00 | 0.00 | 46 | 1014.8 |